Location: Brede
(50.9167°N, 0.6000°E)
Time: 20:48:33
(UTC+00:00)

Vanguard 1 Rocket - Pass Details

Date: 29 November 2020
Orbit: 655 x 4221 km, 34.3° (Epoch: 17 January)

Event Time Altitude Azimuth Distance (km) Brightness Sun altitude
Exits shadow 23:49:58 17° 104° (ESE) 6,058 11.4 -60.8°
Drops below altitude 10° 23:53:51 10° 95° (E) 6,386 11.6 -60.7°
Sets 23:58:56 0° 85° (E) 6,962 12.0 -60.7°
